Probability
0 0 0 0 0 0 0 0 0 0 1 2 1 0 0 0 0 1 1 1 0 0 0 0 0 0 0 0 0 0 0 0 0 0 0 0 0 0
0 0 0 0 0 0 0 0 0 0 1 1 1 0 0 0 0 0 0 0 0 0 0 0 0 0 0 0 0 0 0 0 0 0 0 0 0 0
0 0 0 0 0 0 0 0 0 0 0 0 0 0 0 0 0 0 0 0 0 0 0 0 0 0 0 0 0 0 0 0 0 0 0 0 0 0
0 0 0 0 0 0 0 0 0 0 0 0 0 0 0 0 0 0 0 0 0 0 0 0 0 0 0 0 0 0 0 0 0 0 0 0 0 0
0 0 0 0 0 0 0 0 0 0 0 0 0 0 0 0 0 0 0 0 0 0 0 0 0 0 0 0 0 0 0 0 0 0 0 0 0 0
0 0 0 0 0 0 0 0 0 0 0 0 0 0 0 0 0 0 0 0 0 0 0 0 0 0 0 0 0 0 0 0 0 0 0 0 0 0
0 0 0 0 0 0 0 0 0 0 0 0 0 0 0 0 0 0 0 0 0 0 0 0 0 0 0 0 0 0 0 0 0 0 0 0 0 0
0 0 0 0 0 0 0 0 0 0 0 0 0 0 0 0 0 0 0 0 0 0 0 0 0 0 0 0 0 0 0 0 0 0 0 0 0 0
0 0 0 0 0 0 0 0 0 0 0 0 0 0 0 0 0 0 0 0 0 0 0 0 0 0 0 0 0 0 0 0 0 0 0 0 0 0
0 0 0 0 0 0 0 0 0 0 0 0 0 0 0 0 0 0 0 0 0 0 0 0 0 0 0 0 0 0 0 0 0 0 0 0 0 0
0 0 0 0 0 0 0 0 0 0 0 0 0 0 0 0 0 0 0 0 0 0 0 0 0 0 0 0 0 0 0 0 0 0 0 0 0 0
0 0 0 0 0 0 0 0 0 0 0 0 0 0 0 0 0 0 0 0 0 0 0 0 0 0 0 0 0 0 0 0 0 0 0 0 0 0
0 0 0 0 0 0 0 0 0 0 0 0 0 0 0 0 0 0 0 0 0 0 0 0 0 0 0 0 0 0 0 0 0 0 0 0 0 0
0 0 0 0 0 0 0 0 0 0 0 0 0 0 0 0 0 0 0 0 0 0 0 0 0 0 0 0 0 0 0 0 0 0 0 0 0 0
0 0 0 0 0 0 0 0 0 0 0 0 0 0 0 0 0 0 0 0 0 0 0 0 0 0 0 0 0 0 0 0 0 0 0 0 0 0
0 0 0 0 0 0 0 0 0 0 0 0 0 0 0 0 0 0 0 0 0 0 0 0 0 0 0 0 0 0 0 0 0 0 0 0 0 0
0 0 0 0 0 0 0 0 0 0 0 0 0 0 0 0 0 0 0 0 0 0 0 0 0 0 0 0 0 0 0 0 0 0 0 0 0 0
0 0 0 0 0 0 0 0 0 0 0 0 0 0 0 0 0 0 0 0 0 0 0 0 0 0 0 0 0 0 0 0 0 0 0 0 0 0
0 0 0 0 0 0 0 0 0 0 0 0 0 0 0 0 0 0 0 0 0 0 0 0 0 0 0 0 0 0 0 0 0 0 0 0 0 0
0 0 0 0 0 0 0 0 0 0 0 0 0 0 0 0 0 0 0 0 0 0 0 0 0 0 0 0 0 0 0 0 0 0 0 0 0 0
0 0 0 0 0 0 0 0 0 0 0 0 0 0 0 0 0 0 0 0 0 0 0 0 0 0 0 0 0 0 0 0 0 0 0 0 0 0
0 0 0 0 0 0 0 0 0 0 0 0 0 0 0 0 0 0 0 0 0 0 0 0 0 0 0 0 0 0 0 0 0 0 0 0 0 0
0 0 0 0 0 0 0 0 0 0 0 0 0 0 0 0 0 0 0 0 0 0 0 0 0 0 0 0 0 0 0 0 0 0 0 0 0 0
Wind_Speed
7 7 6 5 4 5 5 5 5 6 6 5 4 4 3 3 2 4 4 3 3 4 4 3 3 3 4 4 4 4 5 5 5 5 6 6 6 7
5 7 6 4 4 4 4 5 5 6 5 3 3 3 3 3 3 4 3 3 4 4 4 4 4 4 4 5 5 5 5 6 6 6 6 6 6 7
6 6 7 5 4 4 4 4 5 5 5 3 3 3 4 4 3 4 3 4 3 4 5 5 5 5 5 5 5 5 5 6 6 6 6 6 6 7
7 7 7 5 6 5 4 5 5 5 5 5 3 4 5 4 4 4 3 3 3 4 5 6 6 6 6 6 6 6 5 5 6 6 6 6 6 7
7 8 7 7 7 6 6 6 5 4 4 5 4 3 3 3 4 3 4 3 3 3 4 5 6 6 6 6 6 5 5 5 6 6 6 7 7 7
7 8 8 7 7 7 6 7 5 5 5 5 4 3 3 3 4 3 3 3 3 3 3 3 4 5 6 6 5 5 5 5 6 6 7 7 7 7
7 7 7 7 8 8 6 6 6 5 5 5 4 4 4 4 5 3 4 3 3 3 3 3 3 3 4 5 6 5 5 5 6 6 7 7 7 7
7 7 7 7 8 9 10 10 9 7 7 6 5 6 6 5 4 4 4 4 3 3 3 3 3 4 3 3 4 5 5 6 6 6 6 6 7 7
7 7 6 6 7 7 7 9 9 10 10 8 7 7 7 6 5 5 6 5 4 3 3 3 3 3 2 2 3 4 5 5 6 6 6 6 6 7
7 7 7 7 7 6 6 6 7 7 8 7 7 7 6 5 6 5 4 4 3 2 3 3 2 2 2 2 2 4 4 5 5 6 6 6 5 5
7 7 7 7 8 7 6 6 6 5 5 6 6 5 5 5 5 4 4 4 3 3 3 2 2 1 1 2 2 2 3 4 4 5 5 5 4 4
5 5 7 7 7 7 6 6 7 5 4 3 4 4 5 5 7 7 6 5 3 3 3 3 2 2 1 1 1 1 1 2 2 2 3 3 3 3
4 4 4 7 7 7 7 6 6 5 4 4 3 3 3 4 4 4 5 5 5 3 3 3 3 2 2 1 1 1 1 1 1 1 2 2 3 3
5 4 4 6 7 7 6 5 5 5 4 4 4 4 4 4 3 3 3 3 3 3 4 4 3 3 2 2 2 1 1 1 1 1 1 2 2 3
4 6 6 6 6 5 5 5 4 3 3 4 4 4 3 3 3 2 2 1 1 1 2 2 3 3 3 3 2 2 1 1 1 1 1 2 2 2
3 3 4 4 4 4 4 3 2 3 3 3 3 3 2 3 3 2 2 2 2 1 0 1 2 3 2 3 3 3 2 2 2 2 1 2 2 2
3 2 1 1 2 2 2 2 1 1 2 2 2 2 3 3 2 2 2 2 2 2 2 1 1 1 0 1 2 3 2 2 2 1 1 2 2 3
2 2 2 2 2 2 2 2 2 2 2 2 2 2 3 3 2 2 2 2 3 3 2 2 2 1 1 1 2 3 2 2 2 2 2 2 3 3
2 2 2 2 2 2 2 2 2 2 2 2 2 2 2 2 3 3 3 2 3 3 3 2 2 3 2 2 1 2 2 2 2 2 2 2 3 3
2 2 2 2 2 2 2 2 2 1 1 2 2 2 2 2 3 3 3 3 3 3 2 2 2 3 3 2 1 1 2 2 2 2 2 2 2 3
3 2 2 2 2 2 2 2 2 2 2 2 2 2 2 2 2 3 3 3 3 3 3 2 1 1 1 1 1 1 1 1 2 2 2 2 2 2
3 2 2 2 2 2 2 2 2 2 2 1 1 2 2 2 3 3 3 3 2 2 2 1 2 2 1 2 2 1 1 1 1 2 3 4 3 3
3 3 3 2 2 2 2 2 2 2 2 1 1 1 2 1 1 2 2 2 2 2 2 2 1 1 1 2 2 1 1 1 1 1 2 3 4 6
Wind_Direction
245 242 242 242 243 245 243 235 235 239 237 231 230 227 230 235 228 236 230 195 214 225 228 231 238 242 241 243 245 245 238 232 231 231 230 231 234 235
247 241 241 241 240 242 242 242 245 248 248 235 235 227 226 233 228 242 236 213 213 221 224 228 234 238 239 241 241 244 239 232 233 235 237 235 237 238
247 241 240 239 237 237 240 240 242 240 243 246 241 229 229 235 235 242 238 235 215 212 222 228 232 235 239 239 239 241 240 236 234 233 240 242 243 246
243 243 241 235 235 233 231 235 238 238 234 235 234 230 232 231 236 240 243 241 235 211 222 231 230 232 234 233 233 234 238 239 237 237 241 247 247 249
241 240 240 233 233 232 229 230 233 234 232 231 229 235 237 224 231 242 239 235 236 221 221 228 231 232 230 229 228 227 229 235 240 239 240 246 248 250
242 239 239 237 233 232 231 228 225 226 224 221 218 221 233 230 226 227 229 225 227 227 227 231 224 223 224 223 222 223 225 230 238 241 242 242 244 247
246 244 241 242 242 237 232 225 218 218 217 215 212 218 221 218 222 228 231 224 230 229 229 225 220 224 221 215 215 219 227 232 239 245 247 247 247 249
246 246 246 240 241 246 237 229 223 219 216 215 217 217 221 224 227 219 224 220 231 205 228 236 229 233 233 230 210 213 223 233 240 244 247 251 253 253
244 242 242 240 241 240 233 229 229 231 230 226 221 223 221 218 215 220 226 228 234 202 212 236 230 240 239 231 223 224 226 231 233 238 244 250 253 254
244 241 239 238 237 238 230 229 230 230 232 230 230 230 229 220 218 226 231 245 247 230 217 236 226 234 241 241 227 237 236 233 234 236 239 243 249 252
248 247 242 238 236 241 233 227 231 237 239 234 234 228 223 220 217 204 202 214 228 223 207 217 217 236 252 246 223 213 232 236 240 240 241 243 248 255
253 249 246 243 239 236 231 223 225 229 224 217 214 211 214 209 213 220 214 213 215 217 192 192 195 195 228 236 237 227 219 208 223 233 237 233 232 246
254 252 248 245 243 242 245 238 231 228 220 214 211 206 207 208 214 223 224 215 211 219 187 182 191 200 207 225 261 260 242 247 234 217 224 238 253 254
257 256 254 252 250 249 250 246 238 226 213 204 203 205 208 210 212 216 224 227 228 228 200 188 192 196 193 217 231 233 255 262 262 249 245 247 251 254
264 266 263 256 255 249 245 236 225 211 205 204 207 212 213 208 198 192 192 177 156 246 208 208 195 194 206 209 206 216 243 263 266 259 261 267 267 256
269 261 256 248 249 247 233 228 234 225 218 218 213 209 197 191 192 192 192 177 166 185 132 169 188 187 202 208 201 215 223 219 223 251 274 283 278 260
284 270 267 258 243 238 238 242 242 233 225 219 206 199 197 191 191 190 190 184 189 193 179 117 85 84 219 213 205 212 212 222 225 234 254 273 272 260
273 257 263 265 253 254 253 253 252 239 230 221 212 204 200 194 191 188 183 183 186 189 183 167 147 135 129 340 231 217 215 225 235 240 248 253 267 266
263 260 264 263 260 260 256 249 253 258 246 226 215 206 200 196 192 191 186 186 189 191 186 179 181 182 197 230 197 203 215 219 231 244 247 252 262 267
271 265 265 263 258 255 253 253 253 247 240 238 226 209 196 193 194 196 194 194 191 186 185 191 198 200 208 209 200 242 237 226 225 241 258 272 277 277
288 282 276 273 267 261 258 252 248 243 240 238 227 216 205 194 196 199 194 190 195 188 193 205 193 151 117 124 158 222 256 261 258 247 245 253 265 260
294 297 292 286 275 265 261 256 253 250 239 233 225 216 211 199 192 195 195 190 193 190 181 163 145 154 172 183 197 222 272 329 320 298 280 261 250 244
299 296 292 286 273 263 254 252 252 248 242 234 227 214 200 190 182 186 187 183 172 170 161 158 159 153 170 181 192 212 241 283 302 304 299 291 273 274